Time,TemperatureF,DewpointF,PressureIn,WindDirection,WindDirectionDegrees,WindSpeedMPH,WindSpeedGustMPH,Humidity,HourlyPrecipIn,Conditions,Clouds,dailyrainin,SoftwareType,DateUTC
2015-01-29 00:05:00,41.3,39.2,30.20,SSE,156,0.0,0.0,92,0.00,,,0.00,Wunderground v.1.15,2015-01-29 06:05:00,
2015-01-29 00:11:00,40.9,38.5,30.21,SSE,156,0.0,0.0,91,0.00,,,0.00,Wunderground v.1.15,2015-01-29 06:11:00,
2015-01-29 00:16:00,40.6,38.5,30.21,SSE,156,0.0,0.0,92,0.00,,,0.00,Wunderground v.1.15,2015-01-29 06:16:00,
2015-01-29 00:22:00,40.6,38.7,30.21,SSE,156,0.0,0.0,93,0.00,,,0.00,Wunderground v.1.15,2015-01-29 06:22:00,
2015-01-29 00:28:00,40.8,38.9,30.22,SSE,156,0.0,0.0,93,0.00,,,0.00,Wunderground v.1.15,2015-01-29 06:28:00,
2015-01-29 00:33:00,40.7,38.8,30.22,SSE,156,0.0,0.0,93,0.00,,,0.00,Wunderground v.1.15,2015-01-29 06:33:00,
2015-01-29 00:39:00,40.8,38.9,30.22,SSE,156,0.0,0.0,93,0.00,,,0.00,Wunderground v.1.15,2015-01-29 06:39:00,
2015-01-29 00:45:00,41.0,39.1,30.22,SSE,156,0.0,0.0,93,0.00,,,0.00,Wunderground v.1.15,2015-01-29 06:45:00,
2015-01-29 00:50:00,40.8,38.9,30.22,SSE,156,0.0,0.0,93,0.00,,,0.00,Wunderground v.1.15,2015-01-29 06:50:00,
2015-01-29 00:56:00,40.9,39.0,30.22,SSE,156,0.0,0.0,93,0.00,,,0.00,Wunderground v.1.15,2015-01-29 06:56:00,
2015-01-29 01:02:00,41.0,39.1,30.23,SSE,156,0.0,0.0,93,0.00,,,0.00,Wunderground v.1.15,2015-01-29 07:02:00,
2015-01-29 01:07:00,41.1,39.2,30.22,SSE,156,0.0,0.0,93,0.00,,,0.00,Wunderground v.1.15,2015-01-29 07:07:00,
2015-01-29 01:13:00,41.4,39.5,30.22,SSE,154,0.0,0.0,93,0.00,,,0.00,Wunderground v.1.15,2015-01-29 07:13:00,
2015-01-29 01:19:00,41.1,39.2,30.23,SSE,154,0.0,0.0,93,0.00,,,0.00,Wunderground v.1.15,2015-01-29 07:19:00,
2015-01-29 01:25:00,40.9,39.0,30.23,SSE,154,0.0,0.0,93,0.00,,,0.00,Wunderground v.1.15,2015-01-29 07:25:00,
2015-01-29 01:30:00,41.3,39.7,30.23,SSE,154,0.0,0.0,94,0.00,,,0.00,Wunderground v.1.15,2015-01-29 07:30:00,
2015-01-29 01:36:00,41.2,39.3,30.23,SSE,154,0.0,0.0,93,0.00,,,0.00,Wunderground v.1.15,2015-01-29 07:36:00,
2015-01-29 01:42:00,40.9,39.0,30.23,SSE,154,0.0,0.0,93,0.00,,,0.00,Wunderground v.1.15,2015-01-29 07:42:00,
2015-01-29 01:47:00,40.9,39.0,30.24,SSE,154,0.0,0.0,93,0.00,,,0.00,Wunderground v.1.15,2015-01-29 07:47:00,
2015-01-29 01:53:00,40.9,39.3,30.24,SSE,154,0.0,0.0,94,0.00,,,0.00,Wunderground v.1.15,2015-01-29 07:53:00,
2015-01-29 01:59:00,41.0,39.4,30.24,SSE,154,0.0,0.0,94,0.00,,,0.00,Wunderground v.1.15,2015-01-29 07:59:00,
2015-01-29 02:04:00,40.9,39.3,30.24,SSE,154,0.0,0.0,94,0.00,,,0.00,Wunderground v.1.15,2015-01-29 08:04:00,
2015-01-29 02:10:00,40.9,39.0,30.25,SSE,154,0.0,0.0,93,0.00,,,0.00,Wunderground v.1.15,2015-01-29 08:10:00,
2015-01-29 02:15:00,40.7,38.8,30.25,SSE,154,0.0,0.0,93,0.00,,,0.00,Wunderground v.1.15,2015-01-29 08:15:00,
2015-01-29 02:21:00,40.5,38.6,30.25,SSE,154,0.0,0.0,93,0.00,,,0.00,Wunderground v.1.15,2015-01-29 08:21:00,
2015-01-29 02:27:00,40.3,38.4,30.25,SSE,154,0.0,0.0,93,0.00,,,0.00,Wunderground v.1.15,2015-01-29 08:27:00,
2015-01-29 02:33:00,40.2,38.6,30.24,SSE,154,0.0,0.0,94,0.00,,,0.00,Wunderground v.1.15,2015-01-29 08:33:00,
2015-01-29 02:38:00,40.3,38.7,30.25,SSE,154,0.0,0.0,94,0.00,,,0.00,Wunderground v.1.15,2015-01-29 08:38:00,
2015-01-29 02:44:00,40.3,39.0,30.24,SSE,154,0.0,0.0,95,0.00,,,0.00,Wunderground v.1.15,2015-01-29 08:44:00,
2015-01-29 02:50:00,40.3,38.7,30.24,SSE,154,0.0,0.0,94,0.00,,,0.00,Wunderground v.1.15,2015-01-29 08:50:00,
2015-01-29 02:56:00,39.9,38.3,30.24,SSE,154,0.0,0.0,94,0.00,,,0.00,Wunderground v.1.15,2015-01-29 08:56:00,
2015-01-29 03:01:00,39.9,38.6,30.24,SSE,154,0.0,0.0,95,0.00,,,0.00,Wunderground v.1.15,2015-01-29 09:01:00,
2015-01-29 03:07:00,39.7,38.1,30.23,SSE,154,0.0,0.0,94,0.00,,,0.00,Wunderground v.1.15,2015-01-29 09:07:00,
2015-01-29 03:13:00,39.5,38.2,30.24,SSE,154,0.0,0.0,95,0.00,,,0.00,Wunderground v.1.15,2015-01-29 09:13:00,
2015-01-29 03:19:00,39.5,38.2,30.24,SSE,154,0.0,0.0,95,0.00,,,0.00,Wunderground v.1.15,2015-01-29 09:19:00,
2015-01-29 03:24:00,39.4,38.1,30.24,SSE,154,0.0,0.0,95,0.00,,,0.00,Wunderground v.1.15,2015-01-29 09:24:00,
2015-01-29 03:30:00,39.5,38.2,30.24,SSE,154,0.0,0.0,95,0.00,,,0.00,Wunderground v.1.15,2015-01-29 09:30:00,
2015-01-29 03:36:00,39.4,38.1,30.24,SSE,154,0.0,0.0,95,0.00,,,0.00,Wunderground v.1.15,2015-01-29 09:36:00,
2015-01-29 03:41:00,39.2,37.9,30.24,SSE,154,0.0,0.0,95,0.00,,,0.00,Wunderground v.1.15,2015-01-29 09:41:00,
2015-01-29 03:47:00,39.4,38.4,30.24,SSE,154,0.0,0.0,96,0.00,,,0.00,Wunderground v.1.15,2015-01-29 09:47:00,
2015-01-29 03:53:00,39.2,37.9,30.24,SSE,154,0.0,0.0,95,0.00,,,0.00,Wunderground v.1.15,2015-01-29 09:53:00,
2015-01-29 03:59:00,38.9,37.6,30.24,SSE,154,0.0,0.0,95,0.00,,,0.00,Wunderground v.1.15,2015-01-29 09:59:00,
2015-01-29 04:04:00,38.9,37.9,30.23,SSE,154,0.0,0.0,96,0.00,,,0.00,Wunderground v.1.15,2015-01-29 10:04:00,
2015-01-29 04:10:00,38.9,37.9,30.24,SSE,154,0.0,0.0,96,0.00,,,0.00,Wunderground v.1.15,2015-01-29 10:10:00,
2015-01-29 04:15:00,39.0,38.0,30.23,SSE,154,0.0,0.0,96,0.00,,,0.00,Wunderground v.1.15,2015-01-29 10:15:00,
2015-01-29 04:21:00,39.2,38.2,30.23,SSE,154,0.0,0.0,96,0.00,,,0.00,Wunderground v.1.15,2015-01-29 10:21:00,
2015-01-29 04:27:00,39.4,38.6,30.23,SSE,154,0.0,0.0,97,0.00,,,0.00,Wunderground v.1.15,2015-01-29 10:27:00,
2015-01-29 04:32:00,40.0,39.2,30.23,SSE,154,0.0,0.0,97,0.00,,,0.00,Wunderground v.1.15,2015-01-29 10:32:00,
2015-01-29 04:38:00,40.3,39.5,30.23,SSE,154,0.0,0.0,97,0.00,,,0.00,Wunderground v.1.15,2015-01-29 10:38:00,
2015-01-29 04:44:00,41.1,40.3,30.23,ESE,109,0.0,0.0,97,0.00,,,0.00,Wunderground v.1.15,2015-01-29 10:44:00,
2015-01-29 04:49:00,40.9,40.1,30.23,ESE,109,0.0,0.0,97,0.00,,,0.00,Wunderground v.1.15,2015-01-29 10:49:00,
2015-01-29 04:55:00,40.7,39.9,30.24,ESE,109,0.0,0.0,97,0.00,,,0.00,Wunderground v.1.15,2015-01-29 10:55:00,
2015-01-29 05:01:00,40.5,39.4,30.24,ESE,109,0.0,0.0,96,0.00,,,0.00,Wunderground v.1.15,2015-01-29 11:01:00,
2015-01-29 05:06:00,40.5,39.4,30.24,ESE,109,0.0,0.0,96,0.00,,,0.00,Wunderground v.1.15,2015-01-29 11:06:00,
2015-01-29 05:12:00,40.7,39.9,30.24,ESE,109,0.0,0.0,97,0.00,,,0.00,Wunderground v.1.15,2015-01-29 11:12:00,
2015-01-29 05:18:00,40.3,39.3,30.24,ESE,109,0.0,0.0,96,0.00,,,0.00,Wunderground v.1.15,2015-01-29 11:18:00,
2015-01-29 05:23:00,40.1,39.1,30.24,ESE,109,0.0,0.0,96,0.00,,,0.00,Wunderground v.1.15,2015-01-29 11:23:00,
2015-01-29 05:29:00,40.7,39.9,30.24,ESE,109,0.0,0.0,97,0.00,,,0.00,Wunderground v.1.15,2015-01-29 11:29:00,
2015-01-29 05:34:00,40.6,39.8,30.24,ESE,109,0.0,0.0,97,0.00,,,0.00,Wunderground v.1.15,2015-01-29 11:34:00,
2015-01-29 05:40:00,40.4,39.6,30.25,ESE,109,0.0,0.0,97,0.00,,,0.00,Wunderground v.1.15,2015-01-29 11:40:00,
2015-01-29 05:46:00,40.1,39.3,30.25,ESE,109,0.0,0.0,97,0.00,,,0.00,Wunderground v.1.15,2015-01-29 11:46:00,
2015-01-29 05:52:00,40.3,39.5,30.25,ESE,109,0.0,0.0,97,0.00,,,0.00,Wunderground v.1.15,2015-01-29 11:52:00,
2015-01-29 05:58:00,40.6,39.8,30.25,ESE,109,0.0,0.0,97,0.00,,,0.00,Wunderground v.1.15,2015-01-29 11:58:00,
2015-01-29 06:04:00,40.6,39.8,30.25,ESE,109,0.0,0.0,97,0.00,,,0.00,Wunderground v.1.15,2015-01-29 12:04:00,
2015-01-29 06:10:00,40.5,39.7,30.25,ESE,109,0.0,0.0,97,0.00,,,0.00,Wunderground v.1.15,2015-01-29 12:10:00,
2015-01-29 06:15:00,40.4,39.6,30.25,ESE,109,0.0,0.0,97,0.00,,,0.00,Wunderground v.1.15,2015-01-29 12:15:00,
2015-01-29 06:21:00,40.8,40.0,30.25,ESE,109,0.0,0.0,97,0.00,,,0.00,Wunderground v.1.15,2015-01-29 12:21:00,
2015-01-29 06:27:00,40.7,39.9,30.25,ESE,109,0.0,0.0,97,0.00,,,0.00,Wunderground v.1.15,2015-01-29 12:27:00,
2015-01-29 06:33:00,40.8,40.0,30.25,ESE,109,0.0,0.0,97,0.00,,,0.00,Wunderground v.1.15,2015-01-29 12:33:00,
2015-01-29 06:38:00,40.9,40.1,30.25,ESE,109,0.0,0.0,97,0.00,,,0.00,Wunderground v.1.15,2015-01-29 12:38:00,
2015-01-29 06:44:00,41.1,40.3,30.25,ESE,109,0.0,0.0,97,0.00,,,0.00,Wunderground v.1.15,2015-01-29 12:44:00,
2015-01-29 06:50:00,41.5,41.0,30.25,ESE,109,0.0,0.0,98,0.00,,,0.00,Wunderground v.1.15,2015-01-29 12:50:00,
2015-01-29 06:55:00,42.1,41.6,30.25,East,90,0.0,0.0,98,0.00,,,0.00,Wunderground v.1.15,2015-01-29 12:55:00,
2015-01-29 07:01:00,42.3,41.8,30.25,East,90,0.0,0.0,98,0.00,,,0.00,Wunderground v.1.15,2015-01-29 13:01:00,
2015-01-29 07:06:00,42.6,42.1,30.25,East,90,0.0,0.0,98,0.00,,,0.00,Wunderground v.1.15,2015-01-29 13:06:00,
2015-01-29 07:12:00,42.8,42.3,30.25,East,90,0.0,0.0,98,0.00,,,0.00,Wunderground v.1.15,2015-01-29 13:12:00,
2015-01-29 07:18:00,42.7,41.9,30.25,East,90,0.0,0.0,97,0.00,,,0.00,Wunderground v.1.15,2015-01-29 13:18:00,
2015-01-29 07:23:00,43.4,42.6,30.25,East,90,0.0,1.0,97,0.00,,,0.00,Wunderground v.1.15,2015-01-29 13:23:00,
2015-01-29 07:29:00,44.0,43.2,30.25,East,82,0.0,1.0,97,0.00,,,0.00,Wunderground v.1.15,2015-01-29 13:29:00,
2015-01-29 07:35:00,44.7,43.9,30.25,East,82,0.0,0.0,97,0.00,,,0.00,Wunderground v.1.15,2015-01-29 13:35:00,
2015-01-29 07:41:00,45.3,44.2,30.25,East,83,0.0,0.0,96,0.00,,,0.00,Wunderground v.1.15,2015-01-29 13:41:00,
2015-01-29 07:47:00,46.0,44.9,30.25,ESE,109,0.0,0.0,96,0.00,,,0.00,Wunderground v.1.15,2015-01-29 13:47:00,
2015-01-29 07:53:00,46.8,45.4,30.25,ESE,109,0.0,0.0,95,0.00,,,0.00,Wunderground v.1.15,2015-01-29 13:53:00,
2015-01-29 07:59:00,47.9,46.3,30.25,ESE,109,0.0,0.0,94,0.00,,,0.00,Wunderground v.1.15,2015-01-29 13:59:00,
2015-01-29 08:05:00,48.9,47.2,30.25,ESE,109,0.0,0.0,94,0.00,,,0.00,Wunderground v.1.15,2015-01-29 14:05:00,
2015-01-29 08:11:00,50.2,48.0,30.25,East,101,0.0,0.0,92,0.00,,,0.00,Wunderground v.1.15,2015-01-29 14:11:00,
2015-01-29 08:16:00,51.6,49.1,30.26,ESE,102,0.0,0.0,91,0.00,,,0.00,Wunderground v.1.15,2015-01-29 14:16:00,
2015-01-29 08:22:00,52.8,49.9,30.25,NNE,26,0.0,1.0,90,0.00,,,0.00,Wunderground v.1.15,2015-01-29 14:22:00,
2015-01-29 08:28:00,54.2,51.0,30.25,NNE,30,0.0,2.0,89,0.00,,,0.00,Wunderground v.1.15,2015-01-29 14:28:00,
2015-01-29 08:33:00,55.4,52.2,30.25,ENE,65,0.0,1.0,89,0.00,,,0.00,Wunderground v.1.15,2015-01-29 14:33:00,
2015-01-29 08:39:00,56.3,52.2,30.25,ENE,73,0.0,1.0,86,0.00,,,0.00,Wunderground v.1.15,2015-01-29 14:39:00,
2015-01-29 08:45:00,57.5,52.7,30.26,East,87,0.0,2.0,84,0.00,,,0.00,Wunderground v.1.15,2015-01-29 14:45:00,
2015-01-29 08:50:00,58.2,53.1,30.26,East,90,0.0,1.0,83,0.00,,,0.00,Wunderground v.1.15,2015-01-29 14:50:00,
2015-01-29 08:56:00,58.9,53.4,30.26,SW,217,1.0,3.0,82,0.00,,,0.00,Wunderground v.1.15,2015-01-29 14:56:00,
2015-01-29 09:02:00,59.5,53.7,30.26,SW,236,1.0,1.0,81,0.00,,,0.00,Wunderground v.1.15,2015-01-29 15:02:00,
2015-01-29 09:08:00,60.3,53.8,30.26,WSW,246,1.0,2.0,79,0.00,,,0.00,Wunderground v.1.15,2015-01-29 15:08:00,
2015-01-29 09:13:00,60.9,54.0,30.26,SSE,155,1.0,3.0,78,0.00,,,0.00,Wunderground v.1.15,2015-01-29 15:13:00,
2015-01-29 09:19:00,61.6,54.3,30.26,SSE,167,1.0,3.0,77,0.00,,,0.00,Wunderground v.1.15,2015-01-29 15:19:00,
2015-01-29 09:25:00,62.5,54.5,30.26,SW,221,1.0,1.0,75,0.00,,,0.00,Wunderground v.1.15,2015-01-29 15:25:00,
2015-01-29 09:30:00,63.1,54.7,30.26,SSE,167,0.0,1.0,74,0.00,,,0.00,Wunderground v.1.15,2015-01-29 15:30:00,
2015-01-29 09:36:00,63.7,54.5,30.26,SE,142,1.0,5.0,72,0.00,,,0.00,Wunderground v.1.15,2015-01-29 15:36:00,
2015-01-29 09:42:00,64.3,54.7,30.25,South,182,1.0,3.0,71,0.00,,,0.00,Wunderground v.1.15,2015-01-29 15:42:00,
2015-01-29 09:47:00,64.7,54.7,30.25,WNW,282,2.0,3.0,70,0.00,,,0.00,Wunderground v.1.15,2015-01-29 15:47:00,
2015-01-29 09:53:00,65.4,55.0,30.26,ESE,117,2.0,2.0,69,0.00,,,0.00,Wunderground v.1.15,2015-01-29 15:53:00,
2015-01-29 09:59:00,65.3,54.5,30.26,West,266,3.0,6.0,68,0.00,,,0.00,Wunderground v.1.15,2015-01-29 15:59:00,